,,Stat6,,Stat2,,Stat8,,Stat9,,Stat10,,Wind1,,Wind1,
time,status,PA1M_AVG,status,PR1M_SUM,status,RH1M_AVG,status,SR1M_AVG,status,TA1M_AVG,status,W1dAve1m,status,W1sAve1m,
2003-10-27, 00:00:00,VALID,918.843,VALID,0,VALID,100,VALID,0.0169808,VALID,19.7035,VALID,132,VALID,0.599964,
2003-10-27, 00:01:00,VALID,918.825,VALID,0,VALID,100,VALID,0.0169808,VALID,19.6965,VALID,141,VALID,0.454297,
2003-10-27, 00:02:00,VALID,918.815,VALID,0,VALID,100,VALID,0,VALID,19.7,VALID,149,VALID,0.548651,
2003-10-27, 00:03:00,VALID,918.798,VALID,0,VALID,100,VALID,0,VALID,19.7069,VALID,140,VALID,0.544922,
2003-10-27, 00:04:00,VALID,918.798,VALID,0,VALID,100,VALID,0.0169808,VALID,19.7104,VALID,126,VALID,0.610937,
2003-10-27, 00:05:00,VALID,918.79,VALID,0,VALID,100,VALID,0,VALID,19.6938,VALID,126,VALID,0.617188,
2003-10-27, 00:06:00,VALID,918.787,VALID,0,VALID,100,VALID,0,VALID,19.7102,VALID,133,VALID,0.63205,
2003-10-27, 00:07:00,VALID,918.775,VALID,0,VALID,100,VALID,-0.0169808,VALID,19.7,VALID,141,VALID,0.733008,
2003-10-27, 00:08:00,VALID,918.781,VALID,0,VALID,100,VALID,0,VALID,19.7032,VALID,139,VALID,0.740189,
2003-10-27, 00:09:00,VALID,918.766,VALID,0,VALID,100,VALID,0.0339617,VALID,19.6973,VALID,133,VALID,0.586682,
2003-10-27, 00:10:00,VALID,918.773,VALID,0,VALID,100,VALID,0,VALID,19.6975,VALID,133,VALID,0.685352,
2003-10-27, 00:11:00,VALID,918.764,VALID,0,VALID,100,VALID,0.0169808,VALID,19.694,VALID,132,VALID,0.659091,
2003-10-27, 00:12:00,VALID,918.756,VALID,0,VALID,100,VALID,0,VALID,19.694,VALID,131,VALID,0.641036,
2003-10-27, 00:13:00,VALID,918.753,VALID,0,VALID,100,VALID,0,VALID,19.7005,VALID,133,VALID,0.569741,
2003-10-27, 00:14:00,VALID,918.754,VALID,0,VALID,100,VALID,0,VALID,19.6841,VALID,128,VALID,0.650799,
2003-10-27, 00:15:00,VALID,918.743,VALID,0,VALID,100,VALID,-0.0169808,VALID,19.691,VALID,138,VALID,0.685724,
2003-10-27, 00:16:00,VALID,918.73,VALID,0,VALID,100,VALID,0.0169808,VALID,19.6868,VALID,139,VALID,0.586868,
2003-10-27, 00:17:00,VALID,918.731,VALID,0,VALID,100,VALID,0,VALID,19.6975,VALID,137,VALID,0.727134,
2003-10-27, 00:18:00,VALID,918.732,VALID,0,VALID,100,VALID,0,VALID,19.6846,VALID,139,VALID,0.80202,
2003-10-27, 00:19:00,VALID,918.723,VALID,0,VALID,100,VALID,0,VALID,19.6975,VALID,137,VALID,0.603659,
2003-10-27, 00:20:00,VALID,918.707,VALID,0,VALID,100,VALID,0.0339617,VALID,19.6908,VALID,128,VALID,0.828465,
2003-10-27, 00:21:00,VALID,918.696,VALID,0,VALID,100,VALID,0,VALID,19.6913,VALID,119,VALID,0.869855,
2003-10-27, 00:22:00,VALID,918.679,VALID,0,VALID,100,VALID,0,VALID,19.6682,VALID,108,VALID,0.83647,
2003-10-27, 00:23:00,VALID,918.674,VALID,0,VALID,100,VALID,-0.0169808,VALID,19.6622,VALID,108,VALID,0.878239,
2003-10-27, 00:24:00,VALID,918.679,VALID,0,VALID,100,VALID,0,VALID,19.652,VALID,114,VALID,0.93657,
2003-10-27, 00:25:00,VALID,918.672,VALID,0,VALID,100,VALID,0,VALID,19.652,VALID,111,VALID,0.83305,
2003-10-27, 00:26:00,VALID,918.662,VALID,0,VALID,100,VALID,-0.0169808,VALID,19.6523,VALID,114,VALID,0.907552,
2003-10-27, 00:27:00,VALID,918.663,VALID,0,VALID,100,VALID,-0.0169808,VALID,19.6391,VALID,118,VALID,0.685454,
2003-10-27, 00:28:00,VALID,918.674,VALID,0,VALID,100,VALID,0,VALID,19.6488,VALID,124,VALID,0.629687,
2003-10-27, 00:29:00,VALID,918.661,VALID,0,VALID,100,VALID,0,VALID,19.6359,VALID,132,VALID,0.528161,
2003-10-27, 00:30:00,VALID,918.668,VALID,0,VALID,100,VALID,-0.0169808,VALID,19.6493,VALID,147,VALID,0.621528,
2003-10-27, 00:31:00,VALID,918.658,VALID,0,VALID,100,VALID,-0.0169808,VALID,19.6428,VALID,160,VALID,0.503534,
2003-10-27, 00:32:00,VALID,918.663,VALID,0,VALID,100,VALID,0,VALID,19.6334,VALID,162,VALID,0.657885,
2003-10-27, 00:33:00,VALID,918.649,VALID,0,VALID,100,VALID,0,VALID,19.6103,VALID,164,VALID,0.624479,
2003-10-27, 00:34:00,VALID,918.63,VALID,0,VALID,100,VALID,0,VALID,19.6038,VALID,151,VALID,0.343568,
2003-10-27, 00:35:00,VALID,918.625,VALID,0,VALID,100,VALID,0,VALID,19.5974,VALID,148,VALID,0.379514,
2003-10-27, 00:36:00,VALID,918.624,VALID,0,VALID,100,VALID,0,VALID,19.5942,VALID,149,VALID,0.569602,
2003-10-27, 00:37:00,VALID,918.621,VALID,0,VALID,100,VALID,0,VALID,19.5847,VALID,148,VALID,0.56593,
2003-10-27, 00:38:00,VALID,918.602,VALID,0,VALID,100,VALID,0,VALID,19.5748,VALID,148,VALID,0.298018,
2003-10-27, 00:39:00,VALID,918.585,VALID,0,VALID,100,VALID,0.0169808,VALID,19.5783,VALID,148,VALID,0.0186738,
2003-10-27, 00:40:00,VALID,918.567,VALID,0,VALID,100,VALID,0,VALID,19.578,VALID,148,VALID,0.000887784,
2003-10-27, 00:41:00,VALID,918.534,VALID,0,VALID,100,VALID,0,VALID,19.5688,VALID,148,VALID,0,
2003-10-27, 00:42:00,VALID,918.502,VALID,0,VALID,100,VALID,0,VALID,19.5393,VALID,148,VALID,0,
2003-10-27, 00:43:00,VALID,918.468,VALID,0,VALID,100,VALID,-0.0169808,VALID,19.5261,VALID,148,VALID,0,
2003-10-27, 00:44:00,VALID,918.429,VALID,0,VALID,100,VALID,-0.0339617,VALID,19.5167,VALID,148,VALID,0.00167411,
2003-10-27, 00:45:00,VALID,918.405,VALID,0,VALID,100,VALID,0,VALID,19.5005,VALID,148,VALID,0.129836,
2003-10-27, 00:46:00,VALID,918.374,VALID,0,VALID,100,VALID,-0.0169808,VALID,19.4841,VALID,148,VALID,0.283482,
2003-10-27, 00:47:00,VALID,918.347,VALID,0,VALID,100,VALID,-0.0169808,VALID,19.4553,VALID,142,VALID,0.506177,
2003-10-27, 00:48:00,VALID,918.328,VALID,0,VALID,100,VALID,0,VALID,19.4682,VALID,136,VALID,0.751389,
2003-10-27, 00:49:00,VALID,918.319,VALID,0,VALID,100,VALID,-0.0169808,VALID,19.4496,VALID,128,VALID,0.804506,
2003-10-27, 00:50:00,VALID,918.297,VALID,0,VALID,100,VALID,-0.101885,VALID,19.4367,VALID,109,VALID,0.756445,
2003-10-27, 00:51:00,VALID,918.277,VALID,0,VALID,100,VALID,-0.101885,VALID,19.4759,VALID,96,VALID,0.770389,
2003-10-27, 00:52:00,VALID,918.259,VALID,0,VALID,100,VALID,-0.101885,VALID,19.4697,VALID,82,VALID,0.707485,
2003-10-27, 00:53:00,VALID,918.25,VALID,0,VALID,100,VALID,-0.101885,VALID,19.464,VALID,77,VALID,0.699319,
2003-10-27, 00:54:00,VALID,918.234,VALID,0,VALID,100,VALID,-0.101885,VALID,19.4282,VALID,83,VALID,0.765811,
2003-10-27, 00:55:00,VALID,918.241,VALID,0,VALID,100,VALID,-0.101885,VALID,19.4011,VALID,75,VALID,0.734561,
2003-10-27, 00:56:00,VALID,918.228,VALID,0,VALID,100,VALID,-0.101885,VALID,19.3852,VALID,70,VALID,0.796512,
2003-10-27, 00:57:00,VALID,918.24,VALID,0,VALID,100,VALID,-0.101885,VALID,19.3793,VALID,70,VALID,0.6609,
2003-10-27, 00:58:00,VALID,918.249,VALID,0,VALID,100,VALID,-0.101885,VALID,19.373,VALID,72,VALID,0.684375,
2003-10-27, 00:59:00,VALID,918.26,VALID,0,VALID,100,VALID,-0.101885,VALID,19.3495,VALID,76,VALID,0.662348,
2003-10-27, 01:00:00,VALID,918.257,VALID,0,VALID,100,VALID,-0.101885,VALID,19.3403,VALID,90,VALID,0.476944,
2003-10-27, 01:01:00,VALID,918.271,VALID,0,VALID,100,VALID,-0.101885,VALID,19.3569,VALID,139,VALID,0.751776,
2003-10-27, 01:02:00,VALID,918.282,VALID,0,VALID,100,VALID,-0.101885,VALID,19.3698,VALID,132,VALID,0.970703,
2003-10-27, 01:03:00,VALID,918.263,VALID,0,VALID,100,VALID,-0.101885,VALID,19.3795,VALID,128,VALID,0.778125,
2003-10-27, 01:04:00,VALID,918.268,VALID,0,VALID,100,VALID,-0.0679233,VALID,19.379,VALID,127,VALID,0.637355,
2003-10-27, 01:05:00,VALID,918.233,VALID,0,VALID,100,VALID,0,VALID,19.384,VALID,124,VALID,0.422805,
2003-10-27, 01:06:00,VALID,918.202,VALID,0,VALID,100,VALID,0,VALID,19.3746,VALID,124,VALID,0.13141,
2003-10-27, 01:07:00,VALID,918.197,VALID,0,VALID,100,VALID,0,VALID,19.3584,VALID,124,VALID,0.287972,
2003-10-27, 01:08:00,VALID,918.175,VALID,0,VALID,100,VALID,0,VALID,19.3617,VALID,124,VALID,0.547461,
2003-10-27, 01:09:00,VALID,918.175,VALID,0,VALID,100,VALID,0,VALID,19.3584,VALID,124,VALID,0.629883,
2003-10-27, 01:10:00,VALID,918.195,VALID,0,VALID,100,VALID,0,VALID,19.3847,VALID,124,VALID,0.771019,
2003-10-27, 01:11:00,VALID,918.218,VALID,0,VALID,100,VALID,0,VALID,19.3681,VALID,125,VALID,0.739062,
2003-10-27, 01:12:00,VALID,918.217,VALID,0,VALID,100,VALID,0,VALID,19.3746,VALID,132,VALID,0.723028,
2003-10-27, 01:13:00,VALID,918.217,VALID,0,VALID,100,VALID,0.0169808,VALID,19.3746,VALID,132,VALID,0.864901,
2003-10-27, 01:14:00,VALID,918.201,VALID,0,VALID,100,VALID,0,VALID,19.3686,VALID,129,VALID,0.998935,
2003-10-27, 01:15:00,VALID,918.18,VALID,0,VALID,100,VALID,0.0169808,VALID,19.349,VALID,127,VALID,0.808685,
2003-10-27, 01:16:00,VALID,918.165,VALID,0,VALID,100,VALID,0,VALID,19.3328,VALID,122,VALID,0.814062,
2003-10-27, 01:17:00,VALID,918.135,VALID,0,VALID,100,VALID,-0.0169808,VALID,19.2966,VALID,128,VALID,0.723366,
2003-10-27, 01:18:00,VALID,918.122,VALID,0,VALID,100,VALID,0.0169808,VALID,19.2876,VALID,136,VALID,0.655035,
2003-10-27, 01:19:00,VALID,918.122,VALID,0,VALID,100,VALID,-0.0169808,VALID,19.2879,VALID,138,VALID,0.575149,
2003-10-27, 01:20:00,VALID,918.129,VALID,0,VALID,100,VALID,0,VALID,19.2812,VALID,144,VALID,0.559593,
2003-10-27, 01:21:00,VALID,918.13,VALID,0,VALID,100,VALID,0,VALID,19.2747,VALID,133,VALID,0.557927,
2003-10-27, 01:22:00,VALID,918.134,VALID,0,VALID,100,VALID,0,VALID,19.265,VALID,138,VALID,0.475497,
2003-10-27, 01:23:00,VALID,918.148,VALID,0,VALID,100,VALID,0.0169808,VALID,19.2454,VALID,142,VALID,0.452947,
2003-10-27, 01:24:00,VALID,918.128,VALID,0,VALID,100,VALID,0.0169808,VALID,19.2489,VALID,144,VALID,0.41915,
2003-10-27, 01:25:00,VALID,918.125,VALID,0,VALID,100,VALID,0,VALID,19.2419,VALID,144,VALID,0.375744,
2003-10-27, 01:26:00,VALID,918.116,VALID,0,VALID,100,VALID,0,VALID,19.239,VALID,144,VALID,0.476207,
2003-10-27, 01:27:00,VALID,918.112,VALID,0,VALID,100,VALID,0.0339617,VALID,19.2454,VALID,137,VALID,0.632457,
2003-10-27, 01:28:00,VALID,918.093,VALID,0,VALID,100,VALID,0,VALID,19.2678,VALID,134,VALID,0.668968,
2003-10-27, 01:29:00,VALID,918.069,VALID,0,VALID,100,VALID,0,VALID,19.2712,VALID,135,VALID,0.644626,
2003-10-27, 01:30:00,VALID,918.058,VALID,0,VALID,100,VALID,0.0169808,VALID,19.2777,VALID,112,VALID,0.463542,
2003-10-27, 01:31:00,VALID,918.043,VALID,0,VALID,100,VALID,0.0339617,VALID,19.2648,VALID,90,VALID,0.360137,
2003-10-27, 01:32:00,VALID,918.026,VALID,0,VALID,100,VALID,0.0169808,VALID,19.2747,VALID,77,VALID,0.375888,
2003-10-27, 01:33:00,VALID,918.012,VALID,0,VALID,100,VALID,0,VALID,19.2973,VALID,75,VALID,0.279535,
2003-10-27, 01:34:00,VALID,918.001,VALID,0,VALID,100,VALID,0,VALID,19.2941,VALID,63,VALID,0.391797,
2003-10-27, 01:35:00,VALID,918.01,VALID,0,VALID,100,VALID,0,VALID,19.2978,VALID,60,VALID,0.296165,
2003-10-27, 01:36:00,VALID,918.004,VALID,0,VALID,100,VALID,0,VALID,19.2616,VALID,60,VALID,0.27782,
2003-10-27, 01:37:00,VALID,918.01,VALID,0,VALID,100,VALID,0,VALID,19.2131,VALID,60,VALID,0.0623183,
2003-10-27, 01:38:00,VALID,918.003,VALID,0,VALID,100,VALID,0,VALID,19.1746,VALID,60,VALID,0,
2003-10-27, 01:39:00,VALID,917.988,VALID,0,VALID,100,VALID,0.0169808,VALID,19.1329,VALID,60,VALID,0,
2003-10-27, 01:40:00,VALID,917.985,VALID,0,VALID,100,VALID,0,VALID,19.107,VALID,60,VALID,0,
2003-10-27, 01:41:00,VALID,917.969,VALID,0,VALID,100,VALID,-0.0169808,VALID,19.0748,VALID,60,VALID,0,
2003-10-27, 01:42:00,VALID,917.956,VALID,0,VALID,100,VALID,-0.0169808,VALID,19.0291,VALID,60,VALID,0,
2003-10-27, 01:43:00,VALID,917.97,VALID,0,VALID,100,VALID,-0.0169808,VALID,19.0201,VALID,60,VALID,0,
2003-10-27, 01:44:00,VALID,917.956,VALID,0,VALID,100,VALID,-0.0169808,VALID,19.0035,VALID,60,VALID,0,
2003-10-27, 01:45:00,VALID,917.955,VALID,0,VALID,100,VALID,0,VALID,18.9809,VALID,60,VALID,0.122396,
2003-10-27, 01:46:00,VALID,917.97,VALID,0,VALID,100,VALID,0,VALID,19.0042,VALID,60,VALID,0.406622,
2003-10-27, 01:47:00,VALID,917.964,VALID,0,VALID,100,VALID,-0.0169808,VALID,19.0199,VALID,60,VALID,0.542969,
2003-10-27, 01:48:00,VALID,917.957,VALID,0,VALID,100,VALID,0,VALID,19.0263,VALID,60,VALID,0.600229,
2003-10-27, 01:49:00,VALID,917.954,VALID,0,VALID,100,VALID,0,VALID,18.9684,VALID,59,VALID,0.584077,
2003-10-27, 01:50:00,VALID,917.942,VALID,0,VALID,100,VALID,0,VALID,18.9071,VALID,59,VALID,0.488758,
2003-10-27, 01:51:00,VALID,917.937,VALID,0,VALID,100,VALID,0.0169808,VALID,18.8969,VALID,59,VALID,0.367733,
2003-10-27, 01:52:00,VALID,917.943,VALID,0,VALID,100,VALID,-0.0169808,VALID,18.9454,VALID,59,VALID,0.353091,
2003-10-27, 01:53:00,VALID,917.938,VALID,0,VALID,100,VALID,-0.0169808,VALID,18.9906,VALID,67,VALID,0.52798,
2003-10-27, 01:54:00,VALID,917.928,VALID,0,VALID,100,VALID,0,VALID,19.0492,VALID,82,VALID,0.56684,
2003-10-27, 01:55:00,VALID,917.917,VALID,0,VALID,100,VALID,0,VALID,19.0713,VALID,90,VALID,0.206715,
2003-10-27, 01:56:00,VALID,917.905,VALID,0,VALID,100,VALID,0,VALID,19.0293,VALID,92,VALID,0.355283,
2003-10-27, 01:57:00,VALID,917.894,VALID,0,VALID,100,VALID,0,VALID,19.0457,VALID,143,VALID,0.356326,
2003-10-27, 01:58:00,VALID,917.875,VALID,0,VALID,100,VALID,0.0169808,VALID,19.0579,VALID,159,VALID,0.242374,
2003-10-27, 01:59:00,VALID,917.866,VALID,0,VALID,100,VALID,0,VALID,19.0911,VALID,159,VALID,0.316992,
2003-10-27, 02:00:00,VALID,917.859,VALID,0,VALID,100,VALID,0,VALID,19.0775,VALID,159,VALID,0.137251,
2003-10-27, 02:01:00,VALID,917.842,VALID,0,VALID,100,VALID,0,VALID,19.0807,VALID,159,VALID,0.0478051,
2003-10-27, 02:02:00,VALID,917.84,VALID,0,VALID,100,VALID,0.0169808,VALID,19.0492,VALID,155,VALID,0.325521,
2003-10-27, 02:03:00,VALID,917.827,VALID,0,VALID,100,VALID,0,VALID,19.0032,VALID,120,VALID,0.526389,
2003-10-27, 02:04:00,VALID,917.826,VALID,0,VALID,100,VALID,0,VALID,19.0032,VALID,94,VALID,0.490451,
2003-10-27, 02:05:00,VALID,917.813,VALID,0,VALID,100,VALID,0.0169808,VALID,18.9451,VALID,78,VALID,0.43064,
2003-10-27, 02:06:00,VALID,917.804,VALID,0,VALID,100,VALID,0,VALID,18.8778,VALID,49,VALID,0.631836,
2003-10-27, 02:07:00,VALID,917.801,VALID,0,VALID,100,VALID,0,VALID,18.8453,VALID,48,VALID,0.771439,
2003-10-27, 02:08:00,VALID,917.789,VALID,0,VALID,100,VALID,0,VALID,18.8065,VALID,48,VALID,0.704901,
2003-10-27, 02:09:00,VALID,917.781,VALID,0,VALID,100,VALID,0,VALID,18.771,VALID,48,VALID,0.656771,
2003-10-27, 02:10:00,VALID,917.771,VALID,0,VALID,100,VALID,0,VALID,18.7687,VALID,48,VALID,0.605859,
2003-10-27, 02:11:00,VALID,917.754,VALID,0,VALID,100,VALID,0,VALID,18.8035,VALID,50,VALID,0.580469,
2003-10-27, 02:12:00,VALID,917.754,VALID,0,VALID,100,VALID,0.0169808,VALID,18.8386,VALID,62,VALID,0.824219,
2003-10-27, 02:13:00,VALID,917.739,VALID,0,VALID,100,VALID,0.0169808,VALID,18.8882,VALID,70,VALID,0.838914,
2003-10-27, 02:14:00,VALID,917.733,VALID,0,VALID,100,VALID,0,VALID,18.9461,VALID,71,VALID,0.947222,
2003-10-27, 02:15:00,VALID,917.712,VALID,0,VALID,100,VALID,0.0169808,VALID,19.0042,VALID,74,VALID,0.937318,
2003-10-27, 02:16:00,VALID,917.693,VALID,0,VALID,100,VALID,0,VALID,19.0524,VALID,76,VALID,0.710352,
2003-10-27, 02:17:00,VALID,917.67,VALID,0,VALID,100,VALID,0,VALID,19.0718,VALID,75,VALID,0.610305,
2003-10-27, 02:18:00,VALID,917.672,VALID,0,VALID,100,VALID,0,VALID,19.0425,VALID,74,VALID,0.567406,
2003-10-27, 02:19:00,VALID,917.649,VALID,0,VALID,100,VALID,0.0339617,VALID,19.0003,VALID,73,VALID,0.551042,
2003-10-27, 02:20:00,VALID,917.633,VALID,0,VALID,100,VALID,0,VALID,18.9717,VALID,73,VALID,0.436928,
2003-10-27, 02:21:00,VALID,917.64,VALID,0,VALID,100,VALID,0.0169808,VALID,18.9073,VALID,73,VALID,0.350535,
2003-10-27, 02:22:00,VALID,917.616,VALID,0,VALID,100,VALID,0.0169808,VALID,18.8813,VALID,73,VALID,0.143466,
2003-10-27, 02:23:00,VALID,917.616,VALID,0,VALID,100,VALID,0.0169808,VALID,18.8483,VALID,73,VALID,0,
2003-10-27, 02:24:00,VALID,917.627,VALID,0,VALID,100,VALID,0,VALID,18.8095,VALID,73,VALID,0,
2003-10-27, 02:25:00,VALID,917.613,VALID,0,VALID,100,VALID,0,VALID,18.7842,VALID,73,VALID,0,
2003-10-27, 02:26:00,VALID,917.611,VALID,0,VALID,100,VALID,0.0169808,VALID,18.7909,VALID,73,VALID,0,
2003-10-27, 02:27:00,VALID,917.604,VALID,0,VALID,100,VALID,0,VALID,18.813,VALID,73,VALID,0,
2003-10-27, 02:28:00,VALID,917.583,VALID,0,VALID,100,VALID,0.0339617,VALID,18.8515,VALID,73,VALID,0,
2003-10-27, 02:29:00,VALID,917.586,VALID,0,VALID,100,VALID,0,VALID,18.8515,VALID,73,VALID,0,
2003-10-27, 02:30:00,VALID,917.578,VALID,0,VALID,100,VALID,0,VALID,18.7978,VALID,73,VALID,0,
2003-10-27, 02:31:00,VALID,917.567,VALID,0,VALID,100,VALID,0,VALID,18.6649,VALID,73,VALID,0,
2003-10-27, 02:32:00,VALID,917.57,VALID,0,VALID,100,VALID,0,VALID,18.5582,VALID,47,VALID,0.390419,
2003-10-27, 02:33:00,VALID,917.558,VALID,0,VALID,100,VALID,0.0169808,VALID,18.5229,VALID,34,VALID,0.387305,
2003-10-27, 02:34:00,VALID,917.54,VALID,0,VALID,100,VALID,0,VALID,18.5291,VALID,34,VALID,0.360305,
2003-10-27, 02:35:00,VALID,917.537,VALID,0,VALID,100,VALID,0.0169808,VALID,18.6197,VALID,25,VALID,0.232851,
2003-10-27, 02:36:00,VALID,917.531,VALID,0,VALID,100,VALID,0.0169808,VALID,18.7817,VALID,1,VALID,0.169271,
2003-10-27, 02:37:00,VALID,917.533,VALID,0,VALID,100,VALID,0.0169808,VALID,18.885,VALID,1,VALID,0.00181686,
2003-10-27, 02:38:00,VALID,917.524,VALID,0,VALID,100,VALID,0.0339617,VALID,18.9138,VALID,1,VALID,0,
2003-10-27, 02:39:00,VALID,917.526,VALID,0,VALID,100,VALID,0,VALID,18.882,VALID,1,VALID,0,
2003-10-27, 02:40:00,VALID,917.517,VALID,0,VALID,100,VALID,0.0169808,VALID,18.8524,VALID,1,VALID,0,
2003-10-27, 02:41:00,VALID,917.496,VALID,0,VALID,100,VALID,0,VALID,18.8527,VALID,1,VALID,0,
2003-10-27, 02:42:00,VALID,917.484,VALID,0,VALID,100,VALID,0.0339617,VALID,18.8169,VALID,1,VALID,0,
2003-10-27, 02:43:00,VALID,917.453,VALID,0,VALID,100,VALID,0.0339617,VALID,18.7909,VALID,1,VALID,0.120998,
2003-10-27, 02:44:00,VALID,917.446,VALID,0,VALID,100,VALID,0,VALID,18.7429,VALID,1,VALID,0.249818,
2003-10-27, 02:45:00,VALID,917.409,VALID,0,VALID,100,VALID,0,VALID,18.7173,VALID,80,VALID,0.449855,
2003-10-27, 02:46:00,VALID,917.395,VALID,0,VALID,100,VALID,0,VALID,18.6783,VALID,111,VALID,0.615854,
2003-10-27, 02:47:00,VALID,917.386,VALID,0,VALID,100,VALID,0,VALID,18.6848,VALID,113,VALID,0.650915,
2003-10-27, 02:48:00,VALID,917.367,VALID,0,VALID,100,VALID,0.0169808,VALID,18.7138,VALID,113,VALID,0.600818,
2003-10-27, 02:49:00,VALID,917.353,VALID,0,VALID,100,VALID,0,VALID,18.7302,VALID,113,VALID,0.608103,
2003-10-27, 02:50:00,VALID,917.35,VALID,0,VALID,100,VALID,0,VALID,18.7037,VALID,101,VALID,0.501674,
2003-10-27, 02:51:00,VALID,917.344,VALID,0,VALID,100,VALID,0.0339617,VALID,18.6041,VALID,73,VALID,0.74535,
2003-10-27, 02:52:00,VALID,917.358,VALID,0,VALID,100,VALID,0.0169808,VALID,18.4971,VALID,52,VALID,0.921875,
2003-10-27, 02:53:00,VALID,917.358,VALID,0,VALID,100,VALID,0,VALID,18.4325,VALID,63,VALID,1.18605,
2003-10-27, 02:54:00,VALID,917.358,VALID,0,VALID,100,VALID,0.0169808,VALID,18.4489,VALID,75,VALID,1.3458,
2003-10-27, 02:55:00,VALID,917.35,VALID,0,VALID,100,VALID,0,VALID,18.4812,VALID,79,VALID,1.20004,
2003-10-27, 02:56:00,VALID,917.334,VALID,0,VALID,100,VALID,0.0339617,VALID,18.5492,VALID,89,VALID,1.43025,
2003-10-27, 02:57:00,VALID,917.309,VALID,0,VALID,100,VALID,0.0169808,VALID,18.6269,VALID,93,VALID,1.28075,
2003-10-27, 02:58:00,VALID,917.299,VALID,0,VALID,100,VALID,0.0339617,VALID,18.6624,VALID,118,VALID,0.969105,
2003-10-27, 02:59:00,VALID,917.281,VALID,0,VALID,100,VALID,0,VALID,18.6557,VALID,131,VALID,1.00286,
2003-10-27, 03:00:00,VALID,917.261,VALID,0,VALID,100,VALID,0,VALID,18.6493,VALID,128,VALID,1.43342,
2003-10-27, 03:01:00,VALID,917.248,VALID,0,VALID,100,VALID,0.0169808,VALID,18.6657,VALID,132,VALID,1.33746,
2003-10-27, 03:02:00,VALID,917.239,VALID,0,VALID,100,VALID,0.0169808,VALID,18.6751,VALID,134,VALID,1.34851,
2003-10-27, 03:03:00,VALID,917.236,VALID,0,VALID,100,VALID,0.0169808,VALID,18.7104,VALID,140,VALID,1.0558,
2003-10-27, 03:04:00,VALID,917.245,VALID,0,VALID,100,VALID,0.0169808,VALID,18.7429,VALID,137,VALID,1.1416,
2003-10-27, 03:05:00,VALID,917.257,VALID,0,VALID,100,VALID,0,VALID,18.775,VALID,121,VALID,0.760538,
2003-10-27, 03:06:00,VALID,917.267,VALID,0,VALID,100,VALID,0,VALID,18.7888,VALID,122,VALID,0.804501,
2003-10-27, 03:07:00,VALID,917.277,VALID,0,VALID,100,VALID,0.0169808,VALID,18.8167,VALID,126,VALID,1.24037,
2003-10-27, 03:08:00,VALID,917.295,VALID,0,VALID,100,VALID,0.0509425,VALID,18.8594,VALID,123,VALID,1.03125,
2003-10-27, 03:09:00,VALID,917.296,VALID,0,VALID,100,VALID,0.0169808,VALID,18.8783,VALID,114,VALID,1.03379,
2003-10-27, 03:10:00,VALID,917.29,VALID,0,VALID,100,VALID,0,VALID,18.8919,VALID,100,VALID,1.15694,
2003-10-27, 03:11:00,VALID,917.286,VALID,0,VALID,100,VALID,0.0169808,VALID,18.9043,VALID,121,VALID,1.14882,
2003-10-27, 03:12:00,VALID,917.272,VALID,0,VALID,100,VALID,0,VALID,18.9143,VALID,125,VALID,0.901634,
2003-10-27, 03:13:00,VALID,917.277,VALID,0,VALID,100,VALID,0,VALID,18.9533,VALID,136,VALID,1.16225,
2003-10-27, 03:14:00,VALID,917.282,VALID,0,VALID,100,VALID,-0.0169808,VALID,18.992,VALID,146,VALID,1.16711,
2003-10-27, 03:15:00,VALID,917.297,VALID,0,VALID,100,VALID,-0.0339617,VALID,19.0208,VALID,138,VALID,0.910689,
2003-10-27, 03:16:00,VALID,917.308,VALID,0,VALID,100,VALID,0,VALID,19.034,VALID,134,VALID,1.10156,
2003-10-27, 03:17:00,VALID,917.326,VALID,0,VALID,100,VALID,0,VALID,19.0402,VALID,131,VALID,0.928199,
2003-10-27, 03:18:00,VALID,917.341,VALID,0,VALID,100,VALID,0,VALID,19.0268,VALID,124,VALID,1.02083,
2003-10-27, 03:19:00,VALID,917.355,VALID,0.2,VALID,100,VALID,0,VALID,19.0273,VALID,120,VALID,0.921512,
2003-10-27, 03:20:00,VALID,917.377,VALID,0,VALID,100,VALID,0,VALID,19.0077,VALID,115,VALID,1.36793,
2003-10-27, 03:21:00,VALID,917.38,VALID,0,VALID,100,VALID,0,VALID,19.0042,VALID,131,VALID,1.0423,
2003-10-27, 03:22:00,VALID,917.382,VALID,0,VALID,100,VALID,0,VALID,19.0072,VALID,121,VALID,0.957292,
2003-10-27, 03:23:00,VALID,917.376,VALID,0,VALID,100,VALID,0.0169808,VALID,18.998,VALID,130,VALID,1.07969,
2003-10-27, 03:24:00,VALID,917.371,VALID,0,VALID,100,VALID,0,VALID,19.0074,VALID,140,VALID,0.995046,
2003-10-27, 03:25:00,VALID,917.36,VALID,0,VALID,100,VALID,0.0169808,VALID,19.0104,VALID,156,VALID,1.01321,
2003-10-27, 03:26:00,VALID,917.356,VALID,0,VALID,100,VALID,0,VALID,19.0169,VALID,170,VALID,0.486049,
2003-10-27, 03:27:00,VALID,917.345,VALID,0,VALID,100,VALID,0,VALID,19.0139,VALID,153,VALID,0.564499,
2003-10-27, 03:28:00,VALID,917.352,VALID,0,VALID,100,VALID,0.0339617,VALID,19.0072,VALID,162,VALID,0.883185,
2003-10-27, 03:29:00,VALID,917.348,VALID,0,VALID,100,VALID,0,VALID,19.0206,VALID,171,VALID,1.2827,
2003-10-27, 03:30:00,VALID,917.342,VALID,0,VALID,100,VALID,0.0169808,VALID,19.0241,VALID,144,VALID,1.26885,
2003-10-27, 03:31:00,VALID,917.347,VALID,0,VALID,100,VALID,-0.0169808,VALID,19.0206,VALID,160,VALID,1.40501,
2003-10-27, 03:32:00,VALID,917.338,VALID,0,VALID,100,VALID,0,VALID,19.0206,VALID,162,VALID,0.564103,
2003-10-27, 03:33:00,VALID,917.343,VALID,0,VALID,100,VALID,0.0169808,VALID,19.0012,VALID,158,VALID,1.07943,
2003-10-27, 03:34:00,VALID,917.34,VALID,0,VALID,100,VALID,0.0339617,VALID,18.9814,VALID,171,VALID,0.81436,
2003-10-27, 03:35:00,VALID,917.337,VALID,0,VALID,100,VALID,0,VALID,18.9742,VALID,156,VALID,0.826389,
2003-10-27, 03:36:00,VALID,917.339,VALID,0,VALID,100,VALID,0,VALID,18.9977,VALID,166,VALID,0.718378,
2003-10-27, 03:37:00,VALID,917.343,VALID,0,VALID,100,VALID,0.0169808,VALID,18.9811,VALID,158,VALID,0.940518,
2003-10-27, 03:38:00,VALID,917.357,VALID,0,VALID,100,VALID,-0.0169808,VALID,18.9948,VALID,155,VALID,0.85665,
2003-10-27, 03:39:00,VALID,917.356,VALID,0,VALID,100,VALID,-0.0169808,VALID,18.9851,VALID,168,VALID,0.94436,
2003-10-27, 03:40:00,VALID,917.361,VALID,0,VALID,100,VALID,0,VALID,18.9818,VALID,165,VALID,0.830903,
2003-10-27, 03:41:00,VALID,917.377,VALID,0,VALID,100,VALID,-0.0169808,VALID,18.9788,VALID,144,VALID,0.672066,
2003-10-27, 03:42:00,VALID,917.375,VALID,0,VALID,100,VALID,0,VALID,18.962,VALID,138,VALID,0.938408,
2003-10-27, 03:43:00,VALID,917.377,VALID,0,VALID,100,VALID,-0.0169808,VALID,18.956,VALID,145,VALID,0.896382,
2003-10-27, 03:44:00,VALID,917.367,VALID,0,VALID,100,VALID,0.0169808,VALID,18.9295,VALID,145,VALID,1.03544,
2003-10-27, 03:45:00,VALID,917.367,VALID,0,VALID,100,VALID,0,VALID,18.9302,VALID,139,VALID,1.0318,
2003-10-27, 03:46:00,VALID,917.361,VALID,0,VALID,100,VALID,0,VALID,18.9396,VALID,133,VALID,0.78561,
2003-10-27, 03:47:00,VALID,917.356,VALID,0,VALID,100,VALID,0,VALID,18.9334,VALID,126,VALID,0.642442,
2003-10-27, 03:48:00,VALID,917.364,VALID,0,VALID,100,VALID,0.0169808,VALID,18.9198,VALID,120,VALID,0.888715,
2003-10-27, 03:49:00,VALID,917.361,VALID,0,VALID,100,VALID,-0.0339617,VALID,18.9332,VALID,119,VALID,0.824963,